When you browse on this site, cookies collect data to enhance your experience and personalize the content and advertising you see.
Visit our Privacy Policy to learn more. By continuing to use the site, you agree to this use of cookies and data.
  • In Hungary
  • List of Countries
  • For 7 days
  • Water Temperature
  • Weather Map
  • News
  • Weather Widgets
  • user-avatar
    Login

    Hourly Weather Memmingen

    Today, 21 November, Thursday

    Time Temperature Precipitation Wind Pressure Humidity
    00:00 +1°C° 0 mm 1 mps 704 mmHg 93%
    01:00 0°C° 0 mm 0 mps 704 mmHg 94%
    02:00 0°C° 0 mm 0 mps 704 mmHg 94%
    03:00 0°C° 0 mm 0 mps 703 mmHg 94%
    04:00 0°C° 0 mm 0 mps 703 mmHg 93%
    05:00 0°C° 0 mm 0 mps 703 mmHg 93%
    06:00 0°C° 0 mm 0 mps 703 mmHg 93%
    07:00 0°C° 0 mm 0 mps 703 mmHg 93%
    08:00 +1°C° 0 mm 0 mps 703 mmHg 89%
    09:00 +3°C° 0 mm 0 mps 703 mmHg 85%
    10:00 +4°C° 0 mm 0 mps 703 mmHg 80%
    11:00 +5°C° 0 mm 0 mps 703 mmHg 77%
    12:00 +6°C° 0 mm 0 mps 703 mmHg 74%
    13:00 +7°C° 0 mm 0 mps 703 mmHg 71%
    14:00 +7°C° 0 mm 1 mps 703 mmHg 77%
    15:00 +6°C° 0 mm 1 mps 703 mmHg 83%
    16:00 +5°C° 0 mm 1 mps 702 mmHg 89%
    17:00 +4°C° 0 mm 1 mps 703 mmHg 90%
    18:00 +3°C° 0 mm 1 mps 703 mmHg 92%
    19:00 +2°C° 0 mm 1 mps 703 mmHg 93%
    20:00 +2°C° 0 mm 1 mps 703 mmHg 93%
    21:00 +2°C° 0 mm 1 mps 703 mmHg 92%
    22:00 +1°C° 0 mm 1 mps 703 mmHg 92%
    23:00 +1°C° 0 mm 1 mps 703 mmHg 91%

    Tomorrow, 22 November, Friday

    Time Temperature Precipitation Wind Pressure Humidity
    00:00 +1°C° 0 mm 1 mps 703 mmHg 91%
    01:00 0°C° 0 mm 0 mps 703 mmHg 90%
    02:00 +1°C° 0 mm 1 mps 703 mmHg 90%
    03:00 +1°C° 0 mm 1 mps 703 mmHg 89%
    04:00 +1°C° 0 mm 1 mps 703 mmHg 89%
    05:00 +1°C° 0 mm 1 mps 703 mmHg 87%
    06:00 +1°C° 0 mm 1 mps 703 mmHg 86%
    07:00 +1°C° 0 mm 1 mps 703 mmHg 84%
    08:00 +2°C° 0 mm 1 mps 703 mmHg 79%
    09:00 +2°C° 0 mm 0 mps 703 mmHg 75%
    10:00 +4°C° 0 mm 0 mps 704 mmHg 71%
    11:00 +5°C° 0 mm 0 mps 703 mmHg 67%
    12:00 +7°C° 0 mm 1 mps 703 mmHg 64%
    13:00 +8°C° 0 mm 1 mps 703 mmHg 61%
    14:00 +7°C° 0 mm 1 mps 702 mmHg 67%
    15:00 +5°C° 0 mm 2 mps 702 mmHg 74%
    16:00 +4°C° 0 mm 2 mps 701 mmHg 80%
    17:00 +3°C° 0 mm 2 mps 701 mmHg 84%
    18:00 +2°C° 0 mm 2 mps 701 mmHg 88%
    19:00 +1°C° 0 mm 2 mps 700 mmHg 91%
    20:00 +1°C° 0 mm 2 mps 700 mmHg 90%
    21:00 +1°C° 0 mm 2 mps 700 mmHg 89%
    22:00 +2°C° 0 mm 1 mps 700 mmHg 87%
    23:00 +2°C° 0 mm 1 mps 700 mmHg 85%

    Day after tomorrow, 23 November, Saturday

    Time Temperature Precipitation Wind Pressure Humidity
    00:00 +2°C° 0 mm 1 mps 700 mmHg 83%
    01:00 +2°C° 0 mm 1 mps 699 mmHg 81%
    02:00 +2°C° 0 mm 1 mps 699 mmHg 79%
    03:00 +2°C° 0 mm 2 mps 699 mmHg 78%
    04:00 +2°C° 0 mm 2 mps 698 mmHg 76%
    05:00 +2°C° 0 mm 2 mps 698 mmHg 76%
    06:00 +2°C° 0 mm 2 mps 698 mmHg 77%
    07:00 +2°C° 0 mm 2 mps 697 mmHg 77%
    08:00 +3°C° 0 mm 2 mps 697 mmHg 74%
    09:00 +5°C° 0 mm 2 mps 697 mmHg 71%
    10:00 +6°C° 0 mm 2 mps 697 mmHg 69%
    11:00 +8°C° 0 mm 2 mps 697 mmHg 67%
    12:00 +9°C° 0 mm 2 mps 697 mmHg 65%
    13:00 +12°C° 0 mm 2 mps 697 mmHg 63%
    14:00 +10°C° 0 mm 2 mps 697 mmHg 69%
    15:00 +9°C° 0 mm 2 mps 697 mmHg 76%
    16:00 +7°C° 0 mm 2 mps 697 mmHg 82%
    17:00 +7°C° 0 mm 2 mps 698 mmHg 82%
    18:00 +7°C° 0 mm 1 mps 698 mmHg 83%
    19:00 +6°C° 0 mm 1 mps 699 mmHg 83%
    20:00 +6°C° 0 mm 1 mps 699 mmHg 82%
    21:00 +5°C° 0 mm 1 mps 699 mmHg 81%
    22:00 +5°C° 0 mm 1 mps 700 mmHg 81%
    23:00 +5°C° 0 mm 1 mps 700 mmHg 82%

    24 November, Sunday

    Time Temperature Precipitation Wind Pressure Humidity
    00:00 +5°C° 0 mm 1 mps 701 mmHg 83%
    01:00 +4°C° 0 mm 1 mps 701 mmHg 85%
    02:00 +3°C° 0 mm 2 mps 702 mmHg 86%
    03:00 +3°C° 0 mm 2 mps 702 mmHg 88%
    04:00 +3°C° 0 mm 2 mps 702 mmHg 89%
    05:00 +3°C° 0 mm 2 mps 703 mmHg 90%
    06:00 +3°C° 0 mm 2 mps 703 mmHg 91%
    07:00 +3°C° 0 mm 2 mps 704 mmHg 92%
    08:00 +4°C° 0 mm 2 mps 705 mmHg 89%
    09:00 +5°C° 0 mm 2 mps 705 mmHg 85%
    10:00 +6°C° 0 mm 2 mps 706 mmHg 82%
    11:00 +7°C° 0 mm 2 mps 706 mmHg 79%
    12:00 +8°C° 0 mm 2 mps 706 mmHg 75%
    13:00 +9°C° 0 mm 2 mps 706 mmHg 72%
    14:00 +9°C° 0 mm 1 mps 706 mmHg 77%
    15:00 +8°C° 0 mm 1 mps 707 mmHg 82%
    16:00 +7°C° 0 mm 1 mps 707 mmHg 87%
    17:00 +7°C° 0 mm 1 mps 707 mmHg 88%
    18:00 +6°C° 0 mm 1 mps 708 mmHg 89%
    19:00 +5°C° 0 mm 1 mps 708 mmHg 91%
    20:00 +5°C° 0 mm 1 mps 708 mmHg 91%
    21:00 +5°C° 0 mm 1 mps 708 mmHg 91%
    22:00 +4°C° 0 mm 1 mps 708 mmHg 92%
    23:00 +4°C° 0 mm 1 mps 708 mmHg 92%

    25 November, Monday

    Time Temperature Precipitation Wind Pressure Humidity
    00:00 +4°C° 0 mm 1 mps 708 mmHg 92%
    01:00 +4°C° 0 mm 1 mps 708 mmHg 92%
    02:00 +4°C° 0 mm 1 mps 708 mmHg 92%
    03:00 +4°C° 0 mm 1 mps 708 mmHg 92%
    04:00 +4°C° 0 mm 1 mps 707 mmHg 92%
    05:00 +4°C° 0 mm 1 mps 707 mmHg 92%
    06:00 +3°C° 0 mm 1 mps 707 mmHg 92%
    07:00 +3°C° 0 mm 1 mps 707 mmHg 91%
    08:00 +4°C° 0 mm 1 mps 707 mmHg 88%
    09:00 +6°C° 0 mm 1 mps 707 mmHg 85%
    10:00 +7°C° 0 mm 1 mps 708 mmHg 81%
    11:00 +8°C° 0 mm 1 mps 707 mmHg 78%
    12:00 +9°C° 0 mm 1 mps 707 mmHg 75%
    13:00 +10°C° 0 mm 1 mps 707 mmHg 72%
    14:00 +9°C° 0 mm 1 mps 707 mmHg 76%
    15:00 +7°C° 0 mm 2 mps 707 mmHg 79%
    16:00 +7°C° 0 mm 2 mps 707 mmHg 83%
    17:00 +6°C° 0 mm 2 mps 707 mmHg 85%
    18:00 +5°C° 0 mm 2 mps 707 mmHg 86%
    19:00 +4°C° 0 mm 3 mps 707 mmHg 88%
    20:00 +4°C° 0 mm 3 mps 708 mmHg 86%
    21:00 +5°C° 0 mm 3 mps 708 mmHg 83%
    22:00 +5°C° 0 mm 3 mps 708 mmHg 80%
    23:00 +5°C° 0 mm 3 mps 708 mmHg 79%

    26 November, Tuesday

    Time Temperature Precipitation Wind Pressure Humidity
    00:00 +7°C° 0 mm 3 mps 708 mmHg 78%
    01:00 +7°C° 0 mm 3 mps 708 mmHg 78%
    02:00 +7°C° 0 mm 3 mps 708 mmHg 79%
    03:00 +5°C° 0 mm 3 mps 708 mmHg 81%
    04:00 +5°C° 0 mm 3 mps 707 mmHg 82%
    05:00 +5°C° 0 mm 3 mps 707 mmHg 82%
    06:00 +5°C° 0 mm 4 mps 707 mmHg 81%
    07:00 +5°C° 0 mm 4 mps 707 mmHg 81%
    08:00 +6°C° 0 mm 4 mps 707 mmHg 79%
    09:00 +7°C° 0 mm 4 mps 708 mmHg 77%
    10:00 +7°C° 0 mm 4 mps 708 mmHg 75%
    11:00 +8°C° 0 mm 4 mps 707 mmHg 74%
    12:00 +8°C° 0 mm 4 mps 707 mmHg 73%
    13:00 +10°C° 0 mm 4 mps 707 mmHg 72%
    14:00 +8°C° 0 mm 4 mps 707 mmHg 76%
    15:00 +9°C° 0 mm 3 mps 707 mmHg 79%
    16:00 +8°C° 0 mm 3 mps 707 mmHg 82%
    17:00 +7°C° 0 mm 3 mps 707 mmHg 85%
    18:00 +5°C° 0 mm 3 mps 707 mmHg 88%
    19:00 +5°C° 0 mm 3 mps 707 mmHg 91%
    20:00 +4°C° 0 mm 3 mps 707 mmHg 91%
    21:00 +4°C° 0 mm 3 mps 707 mmHg 92%
    22:00 +5°C° 0 mm 2 mps 707 mmHg 92%
    23:00 +5°C° 0 mm 2 mps 707 mmHg 91%
    Show more